Regional Weather Roundup
Issued by NWS

Home | Current Version | Previous Version | Text Only | Print | Product List | Glossary On
Versions: 1 2 3 4 5 6 7 8 9 10 11 12 13 14 15 16 17 18 19 20 21 22 23 24 25 26 27 28 29 30 31 32 33 34 35 36 37 38 39 40 41 42 43 44 45 46 47 48 49 50
000
ASUS43 KLOT 031321
RWRIL

ILLINOIS REGIONAL WEATHER ROUNDUP
NATIONAL WEATHER SERVICE CHICAGO/ROMEOVILLE IL
800 AM CDT THU SEP 03 2015

NOTE: "FAIR" INDICATES FEW OR NO CLOUDS BELOW 12,000 FEET WITH NO
SIGNIFICANT WEATHER AND/OR OBSTRUCTIONS TO VISIBILITY.

* THESE STATIONS ARE NOT UNDER NWS QUALITY CONTROL. THEY ALSO MAY NOT
  REPORT WEATHER SUCH AS PRECIPITATION OR FOG.

ILZ001-002-007-009-015-016-024-031400-
NORTHWEST ILLINOIS

CITY           SKY/WX    TMP DP  RH WIND       PRES   REMARKS
MOLINE         MOSUNNY   75  68  78 SW5       29.96S
STERLING*      SUNNY     77  72  83 W5        29.95R
SAVANNA*       SUNNY     73  69  88 SE3       29.95S
$$

ILZ003-004-008-010-011-017-018-031400-
NORTH CENTRAL ILLINOIS

CITY           SKY/WX    TMP DP  RH WIND       PRES   REMARKS
ROCKFORD       SUNNY     73  68  84 S5        29.97S
FREEPORT*      SUNNY     73  69  86 SW8       29.97F
ROCHELLE*      SUNNY     71  69  95 SW3       29.98S
DE KALB*       SUNNY     72  70  92 CALM      29.98S FOG
PERU*          SUNNY     73  68  83 SW5       29.98S
$$

ILZ005-006-012>014-019>023-031400-
NORTHEAST ILLINOIS

CITY           SKY/WX    TMP DP  RH WIND       PRES   REMARKS
CHICAGO-OHARE  MOSUNNY   75  68  78 SW7       29.96R
CHICAGO-MIDWAY MOSUNNY   78  67  68 SW9       29.96S HX  80
AURORA         SUNNY     73  68  84 SW6       29.98S HAZE
LANSING*       SUNNY     76  68  77 SW6       29.98S
JOLIET*        SUNNY     74  70  85 SW3       29.97F
WAUKEGAN       SUNNY     75  69  81 SW10      29.94S
DUPAGE AIRPORT SUNNY     74  68  81 SW7       29.97R
KANKAKEE*      SUNNY     74  70  87 SW6       30.00S
WHEELING       SUNNY     76  68  76 SW5       29.97R
MORRIS*        SUNNY     73  68  87 SW3       29.97S
ROMEOVILLE*    SUNNY     73  68  83 SW6       29.98S
NORTHERLY ISL    N/A     77  65  66 SW12        N/A
$$

LMZ740>746-031400-
SOUTHERN LAKE MICHIGAN

STATION/POSITION SKY/WX   TEMP    WIND        PRES    VSBY  WAVE
                          AIR SEA DIR/SP/G                  HT/PER
                          (F)     (DEG/KT/KT) (MB)    (MI)  (FT/S)
SOUTHERN BUOY              73 71  220/ 12/ 14 1012.5F         1
WILMETTE HARBOR            67 60   30/  8/  8   N/A           0
HARRISON CRIB              78     240/ 11/ 14   N/A
BURNHAM HARBOR             77     240/  9/ 10   N/A
CALUMET HARBOR             74     200/  6/  8   N/A
BURNS HARBOR               74     190/  8/ 10 1015.2S
MICHIGAN CITY              75     180/  9/ 11   N/A
MICHIGAN CITY 6N           75 72  230/  8/ 10   N/A           1/ 2
ST. JOSEPH                 74 72  260/ 10/ 12   N/A           1/ 2
$$

ILZ025>027-034>036-040-047-049-050-058-095>099-031400-
WEST-CENTRAL ILLINOIS

CITY           SKY/WX    TMP DP  RH WIND       PRES   REMARKS
QUINCY         CLOUDY    73  68  84 S6        30.00R
GALESBURG*     SUNNY     71  68  89 CALM      29.99S
MACOMB*        SUNNY     73  69  85 CALM      30.01S
JACKSONVILLE*  LGT RAIN  76  71  85 S3        30.02R
PITTSFIELD*    PTSUNNY   74  70  87 S3        30.02R
$$

ILZ028>032-037-038-041>044-048-051>054-059>061-031400-
CENTRAL ILLINOIS

CITY           SKY/WX    TMP DP  RH WIND       PRES   REMARKS
PONTIAC        SUNNY     75  71  87 S5        30.00S
BLOOMINGTON    SUNNY     73  71  93 SW7       30.03S
DECATUR        SUNNY     75  68  78 SW6       30.03R
PEORIA         SUNNY     74  67  78 S5        30.00R
LACON*         SUNNY     73  68  86 S3        29.98S
LINCOLN*       MOSUNNY   72  68  88 S3        30.01S
SPRINGFIELD    PTSUNNY   77  70  79 SW7       30.01S
TAYLORVILLE    SUNNY     72  70  94 S3        30.03R
$$

ILZ033-039-045-046-055>057-062-063-031400-
EAST-CENTRAL ILLINOIS

CITY           SKY/WX    TMP DP  RH WIND       PRES   REMARKS
CHAMPAIGN      SUNNY     73  69  87 SW5       30.03S
RANTOUL*       SUNNY     74  70  87 SW5       30.01F
MATTOON        SUNNY     75  67  76 SW8       30.03R
PARIS*         SUNNY     73  71  93 SW3       30.04S
$$

ILZ079-100>102-031400-
SOUTHWEST ILLINOIS

CITY           SKY/WX    TMP DP  RH WIND       PRES   REMARKS
ALTON          MOSUNNY   72  70  94 S6        30.03R
BELLEVILLE     SUNNY     73  73 100 CALM      30.02R
CAHOKIA*       MOSUNNY   75  69  81 CALM      30.02R
SPARTA*        SUNNY     74  70  87 CALM      30.05R
$$

ILZ064>066-069>071-074>076-080>082-084>086-088>090-092>094-031400-
SOUTH-CENTRAL ILLINOIS

CITY           SKY/WX    TMP DP  RH WIND       PRES   REMARKS
CARBONDALE     SUNNY     72  69  90 CALM      30.04S FOG
CAIRO*         SUNNY     70  70 100 CALM      30.04S FOG
EFFINGHAM*     SUNNY     72  68  87 CALM      30.06R
MARION         SUNNY     73  72  94 S5        30.05R
MT. VERNON     SUNNY     73  66  78 CALM      30.05S
CENTRALIA*     SUNNY     75  72  90 CALM      30.03S
SALEM*         SUNNY     76  70  84 CALM      30.05R
METROPOLIS*    SUNNY     71  71 100 CALM      30.05R
$$

ILZ067-068-072-073-078-083-087-091-031400-
SOUTHEAST ILLINOIS

CITY           SKY/WX    TMP DP  RH WIND       PRES   REMARKS
LAWRENCEVILLE  SUNNY     72  70  93 CALM      30.05R FOG
FLORA*         SUNNY     73  69  86 CALM      30.04S
FAIRFIELD*     SUNNY     72  70  94 CALM      30.04S FOG
HARRISBURG*    SUNNY     70  69  97 CALM      30.05R FOG
ROBINSON*      SUNNY     72  70  93 CALM      30.05S
CARMI*         SUNNY     70  70 100 CALM      30.04S FOG
$$

ABBREVIATIONS USED IN REMARKS
   TC - TEMPERATURE IN CELSIUS
  WCI - WIND CHILL INDEX
   HX - HEAT INDEX
  VSB - VISIBILITY
$$




USA.gov is the U.S. government's official web portal to all federal, state and local government web resources and services.